DW3560 Weather Reports


time (UTC)temp
C
wind
direction
speed
KPH
gust
KPH
rain 1hr
cm
rain 24hr
cm
rain mn
cm
humidity
%
barometer
mb
20260906205502 21 271 4.8 14.5 0.00 0.00 0.00 59 1014.5
20260906205023 21 259 4.8 14.5 0.00 0.00 0.00 57 1014.5
20260906204523 21 245 6.4 14.5 0.00 0.00 0.00 57 1014.5
20260906204002 21 245 4.8 14.5 0.00 0.00 0.00 57 1014.5
20260906203503 21 242 3.2 12.9 0.00 0.00 0.00 59 1014.5
20260906203023 21 239 3.2 14.5 0.00 0.00 0.00 60 1014.5
20260906202502 21 241 4.8 14.5 0.00 0.00 0.00 59 1014.5
20260906202002 21 236 4.8 12.9 0.00 0.00 0.00 63 1014.5
20260906201502 20 251 4.8 14.5 0.00 0.00 0.00 62 1014.5
20260906201002 20 257 4.8 14.5 0.00 0.00 0.00 63 1014.5
20260906200502 20 235 4.8 12.9 0.00 0.00 0.00 66 1014.5
20260906200002 20 234 6.4 19.3 0.00 0.00 0.00 65 1014.5
20260906195502 20 238 4.8 19.3 0.00 0.00 0.00 64 1014.5
20260906195002 20 231 4.8 9.7 0.00 0.00 0.00 67 1014.5
20260906194502 19 234 4.8 9.7 0.00 0.00 0.00 67 1014.5
20260906194002 19 242 6.4 14.5 0.00 0.00 0.00 68 1014.5
20260906193502 19 244 4.8 14.5 0.00 0.00 0.00 67 1014.5
20260906193023 20 245 4.8 16.1 0.00 0.00 0.00 69 1014.5
20260906192502 19 241 4.8 16.1 0.00 0.00 0.00 68 1014.5
20260906192002 20 234 4.8 14.5 0.00 0.00 0.00 69 1014.5
20260906191502 20 243 3.2 12.9 0.00 0.00 0.00 70 1014.5
20260906191002 19 252 4.8 14.5 0.00 0.00 0.00 71 1014.5
20260906190502 18 252 4.8 14.5 0.00 0.00 0.00 72 1014.5
20260906190002 18 228 4.8 12.9 0.00 0.00 0.00 72 1014.5
20260906185502 18 211 3.2 9.7 0.00 0.00 0.00 72 1014.5
20260906185002 18 226 3.2 9.7 0.00 0.00 0.00 73 1014.5
20260906184502 18 224 3.2 11.3 0.00 0.00 0.00 74 1014.5
20260906184023 18 227 4.8 12.9 0.00 0.00 0.00 75 1014.5
20260906183502 17 251 3.2 12.9 0.00 0.00 0.00 74 1014.5
20260906183023 17 232 3.2 9.7 0.00 0.00 0.00 76 1014.5
20260906182502 17 207 4.8 11.3 0.00 0.00 0.00 77 1014.5
20260906182002 17 206 4.8 11.3 0.00 0.00 0.00 78 1014.5
20260906181502 17 214 4.8 11.3 0.00 0.00 0.00 78 1014.5
20260906181002 17 214 4.8 12.9 0.00 0.00 0.00 78 1014.5
20260906180502 16 209 4.8 12.9 0.00 0.00 0.00 79 1014.5
20260906180002 16 235 4.8 9.7 0.00 0.00 0.00 79 1014.5
20260906175502 16 248 4.8 11.3 0.00 0.00 0.00 80 1014.5
20260906175002 16 223 4.8 11.3 0.00 0.00 0.00 81 1014.5
20260906174502 16 223 4.8 9.7 0.00 0.00 0.00 81 1014.5
20260906174002 16 216 3.2 9.7 0.00 0.00 0.00 82 1014.5
20260906173502 15 220 3.2 9.7 0.00 0.00 0.00 82 1014.5
20260906173002 15 233 3.2 12.9 0.00 0.00 0.00 83 1014.5
20260906172502 15 233 4.8 14.5 0.00 0.00 0.00 83 1014.5
20260906172002 15 241 4.8 14.5 0.00 0.00 0.00 84 1014.5
20260906171502 15 261 3.2 8.0 0.00 0.00 0.00 85 1014.5
20260906171004 15 248 3.2 9.7 0.00 0.00 0.00 86 1014.5
20260906170502 15 221 3.2 9.7 0.00 0.00 0.00 86 1014.5
20260906170023 15 207 3.2 8.0 0.00 0.00 0.00 86 1014.5
20260906165502 14 223 3.2 8.0 0.00 0.00 0.00 87 1014.5
20260906165002 14 230 3.2 12.9 0.00 0.00 0.00 88 1014.5
20260906164502 14 230 3.2 12.9 0.00 0.00 0.00 88 1014.5
20260906164002 14 240 1.6 8.0 0.00 0.00 0.00 88 1014.5
20260906163502 13 240 1.6 8.0 0.00 0.00 0.00 89 1014.5
20260906163023 13 240 3.2 11.3 0.00 0.00 0.00 89 1014.5
20260906162502 13 242 3.2 11.3 0.00 0.00 0.00 89 1014.5
20260906162002 13 239 3.2 8.0 0.00 0.00 0.00 90 1014.5
20260906161502 13 229 3.2 8.0 0.00 0.00 0.00 90 1014.5
20260906161023 13 229 3.2 11.3 0.00 0.00 0.00 90 1014.5
20260906160502 13 234 3.2 11.3 0.00 0.00 0.00 90 1014.5
20260906160003 13 220 1.6 9.7 0.00 0.00 0.00 91 1014.5
20260906155502 13 231 1.6 8.0 0.00 0.00 0.00 91 1014.5
20260906155023 13 250 3.2 8.0 0.00 0.00 0.00 91 1014.5
20260906154502 13 246 3.2 12.9 0.00 0.00 0.00 91 1014.5
20260906154002 13 246 4.8 12.9 0.00 0.00 0.00 91 1014.5
20260906153502 13 247 3.2 11.3 0.00 0.00 0.00 91 1014.5
20260906153024 13 242 1.6 8.0 0.00 0.00 0.00 92 1014.5
20260906152502 13 249 1.6 4.8 0.00 0.00 0.00 92 1014.5
20260906152002 13 249 3.2 11.3 0.00 0.00 0.00 92 1014.5
20260906151502 13 241 3.2 11.3 0.00 0.00 0.00 92 1014.5
20260906151002 13 235 3.2 11.3 0.00 0.00 0.00 92 1014.5
20260906150502 12 237 3.2 9.7 0.00 0.00 0.00 92 1014.5
20260906150002 12 244 3.2 9.7 0.00 0.00 0.00 92 1014.5
20260906145523 12 241 3.2 8.0 0.00 0.00 0.00 92 1014.5
20260906145023 13 222 1.6 6.4 0.00 0.00 0.00 92 1014.5
20260906144523 13 217 1.6 6.4 0.00 0.00 0.00 92 1014.5
20260906144002 12 203 1.6 6.4 0.00 0.00 0.00 92 1014.5
20260906143502 12 198 1.6 6.4 0.00 0.00 0.00 92 1014.5
20260906143002 12 212 1.6 6.4 0.00 0.00 0.00 93 1014.5
20260906142503 12 215 1.6 4.8 0.00 0.00 0.00 93 1014.5
20260906142002 12 210 1.6 4.8 0.00 0.00 0.00 93 1014.5
20260906141502 12 202 1.6 6.4 0.00 0.00 0.00 93 1014.5
20260906141002 12 198 1.6 6.4 0.00 0.00 0.00 93 1014.5
20260906140502 12 198 1.6 8.0 0.00 0.00 0.00 93 1014.5
20260906140003 12 199 1.6 8.0 0.00 0.00 0.00 93 1014.5
20260906135502 12 197 1.6 6.4 0.00 0.00 0.00 93 1014.5
20260906135023 12 195 1.6 6.4 0.00 0.00 0.00 92 1014.5
20260906134523 12 195 1.6 4.8 0.00 0.00 0.00 93 1014.5
20260906134002 12 196 1.6 4.8 0.00 0.00 0.00 92 1014.5
20260906133503 12 198 0.0 3.2 0.00 0.00 0.00 93 1014.5
20260906133002 12 198 1.6 6.4 0.00 0.00 0.00 93 1014.5
20260906132502 12 198 1.6 6.4 0.00 0.00 0.00 93 1014.5
20260906132002 12 198 0.0 4.8 0.00 0.00 0.00 93 1014.5
20260906131502 12 199 1.6 4.8 0.00 0.00 0.00 93 1014.5
20260906131002 12 200 1.6 6.4 0.00 0.00 0.00 92 1014.5
20260906130502 12 200 1.6 6.4 0.00 0.00 0.00 92 1014.5
20260906130003 12 200 1.6 4.8 0.00 0.00 0.00 92 1014.5
20260906125502 12 198 0.0 4.8 0.00 0.00 0.00 93 1014.5
20260906125023 12 200 0.0 4.8 0.00 0.00 0.00 93 1014.5
20260906124502 12 203 0.0 4.8 0.00 0.00 0.00 92 1014.5
20260906124002 12 231 0.0 4.8 0.00 0.00 0.00 92 1014.5
20260906123024 12 229 1.6 6.4 0.00 0.00 0.00 92 1014.5
20260906122002 12 222 0.0 4.8 0.00 0.00 0.00 93 1014.6
20260906121502 12 248 1.6 4.8 0.00 0.00 0.00 93 1014.6
20260906121002 12 251 3.2 11.3 0.00 0.00 0.00 93 1014.6
20260906120503 12 255 3.2 11.3 0.00 0.00 0.00 93 1014.6
20260906120002 12 254 3.2 6.4 0.00 0.00 0.00 92 1014.6
20260906115502 12 248 1.6 6.4 0.00 0.00 0.00 92 1014.6
20260906115002 12 251 1.6 4.8 0.00 0.00 0.00 92 1014.6
20260906114502 12 251 1.6 6.4 0.00 0.00 0.00 92 1014.6
20260906114002 12 251 1.6 6.4 0.00 0.00 0.00 92 1014.6
20260906113523 12 250 1.6 6.4 0.00 0.00 0.00 92 1014.6
20260906113023 13 248 1.6 11.3 0.00 0.00 0.00 92 1014.6
20260906112503 13 244 3.2 11.3 0.00 0.00 0.00 93 1014.5
20260906112002 13 251 1.6 9.7 0.00 0.00 0.00 93 1014.5
20260906111502 13 260 1.6 9.7 0.00 0.00 0.00 93 1014.5
20260906111002 13 249 1.6 6.4 0.00 0.00 0.00 93 1014.5
20260906110523 13 248 1.6 4.8 0.00 0.00 0.00 93 1014.5
20260906110023 13 243 1.6 9.7 0.00 0.00 0.00 93 1014.8
20260906105502 13 241 3.2 9.7 0.00 0.00 0.00 93 1014.8
20260906105002 13 245 3.2 12.9 0.00 0.00 0.00 93 1014.8
20260906104523 13 246 1.6 12.9 0.00 0.00 0.00 93 1014.8
20260906104023 13 247 1.6 6.4 0.00 0.00 0.00 93 1014.8
20260906103523 13 251 1.6 9.7 0.00 0.00 0.00 92 1014.8
20260906103024 13 246 3.2 11.3 0.00 0.00 0.00 92 1014.8
20260906102503 13 246 3.2 11.3 0.00 0.00 0.00 92 1014.8
20260906102002 13 247 1.6 6.4 0.00 0.00 0.00 92 1014.8
20260906101524 13 246 1.6 8.0 0.00 0.00 0.00 93 1014.8
20260906101003 13 243 1.6 8.0 0.00 0.00 0.00 92 1014.8
20260906100502 13 243 3.2 8.0 0.00 0.00 0.00 92 1014.8
20260906100002 13 245 1.6 8.0 0.00 0.00 0.00 92 1014.8
20260906095502 13 243 3.2 9.7 0.00 0.00 0.00 92 1014.8
20260906095024 13 241 1.6 9.7 0.00 0.00 0.00 92 1014.8
20260906094502 13 240 1.6 8.0 0.00 0.00 0.00 92 1014.8
20260906094002 13 241 1.6 8.0 0.00 0.00 0.00 92 1014.8
20260906093502 13 254 0.0 4.8 0.00 0.00 0.00 92 1014.8
20260906093024 13 257 1.6 6.4 0.00 0.00 0.00 92 1014.8
20260906092524 13 259 0.0 6.4 0.00 0.00 0.00 92 1014.8
20260906092002 13 194 0.0 1.6 0.00 0.00 0.00 92 1014.8
20260906091502 13 194 0.0 3.2 0.00 0.00 0.00 92 1014.8
20260906091002 13 194 0.0 4.8 0.00 0.00 0.00 92 1014.8
20260906090502 13 191 1.6 6.4 0.00 0.00 0.00 92 1014.8
20260906090003 13 184 3.2 8.0 0.00 0.00 0.00 92 1014.8
20260906085502 13 175 3.2 8.0 0.00 0.00 0.00 92 1014.8
20260906085002 13 169 1.6 8.0 0.00 0.00 0.00 92 1014.8
20260906084524 13 163 1.6 8.0 0.00 0.00 0.00 92 1014.8
20260906084002 13 164 1.6 8.0 0.00 0.00 0.00 92 1014.8
20260906083502 13 167 1.6 6.4 0.00 0.00 0.00 92 1014.8
20260906083002 13 165 1.6 6.4 0.00 0.00 0.00 92 1014.8
20260906082502 13 166 1.6 8.0 0.00 0.00 0.00 92 1014.8
20260906082003 13 169 1.6 8.0 0.00 0.00 0.00 91 1014.8
20260906081523 13 170 1.6 9.7 0.00 0.00 0.00 91 1014.8
20260906081002 13 171 1.6 9.7 0.00 0.00 0.00 91 1014.8
20260906080524 13 168 1.6 6.4 0.00 0.00 0.00 91 1014.8
20260906080003 13 159 1.6 9.7 0.00 0.00 0.00 91 1014.8
20260906075502 13 172 1.6 8.0 0.00 0.00 0.00 91 1014.8
20260906075002 13 187 1.6 8.0 0.00 0.00 0.00 91 1014.8
20260906074503 13 184 1.6 9.7 0.00 0.00 0.00 91 1014.8
20260906074002 13 183 1.6 9.7 0.00 0.00 0.00 90 1014.8
20260906073502 13 181 1.6 6.4 0.00 0.00 0.00 90 1014.8
20260906073002 13 172 1.6 6.4 0.00 0.00 0.00 90 1014.8
20260906072502 13 173 1.6 8.0 0.00 0.00 0.00 90 1014.8
20260906072023 13 176 1.6 8.0 0.00 0.00 0.00 90 1014.8
20260906071524 13 180 0.0 4.8 0.00 0.00 0.00 90 1014.8
20260906071002 13 179 0.0 4.8 0.00 0.00 0.00 89 1014.8
20260906070524 13 177 1.6 4.8 0.00 0.00 0.00 89 1014.8
20260906070006 13 176 0.0 4.8 0.00 0.00 0.00 89 1014.8
20260906065503 13 179 1.6 4.8 0.00 0.00 0.00 89 1014.8
20260906065003 13 181 1.6 6.4 0.00 0.00 0.00 89 1014.8
20260906064503 14 183 1.6 6.4 0.00 0.00 0.00 89 1014.8
20260906064002 14 187 1.6 4.8 0.00 0.00 0.00 88 1014.8
20260906063502 14 187 1.6 4.8 0.00 0.00 0.00 88 1014.8
20260906063002 14 187 0.0 4.8 0.00 0.00 0.00 88 1014.8
20260906062524 14 187 0.0 6.4 0.00 0.00 0.00 88 1014.8
20260906062003 14 187 0.0 6.4 0.00 0.00 0.00 87 1014.8
20260906061524 14 188 0.0 3.2 0.00 0.00 0.00 87 1014.8
20260906061003 14 187 0.0 4.8 0.00 0.00 0.00 87 1014.8
20260906060502 14 187 1.6 6.4 0.00 0.00 0.00 87 1014.8
20260906060003 14 188 1.6 6.4 0.00 0.00 0.00 86 1014.8
20260906055503 14 188 1.6 4.8 0.00 0.00 0.00 86 1014.8
20260906055024 14 188 0.0 3.2 0.00 0.00 0.00 86 1014.8
20260906054503 14 188 0.0 3.2 0.00 0.00 0.00 86 1014.8
20260906054002 14 188 1.6 6.4 0.00 0.00 0.00 85 1014.8
20260906053524 14 188 1.6 6.4 0.00 0.00 0.00 85 1014.8
20260906053002 14 189 0.0 4.8 0.00 0.00 0.00 85 1014.8
20260906052524 14 191 0.0 4.8 0.00 0.00 0.00 85 1014.8
20260906052003 15 192 0.0 4.8 0.00 0.00 0.00 84 1014.8
20260906051503 15 192 0.0 4.8 0.00 0.00 0.00 84 1014.8
20260906051024 15 192 0.0 1.6 0.00 0.00 0.00 84 1014.8
20260906050524 15 192 0.0 4.8 0.00 0.00 0.00 84 1014.8
20260906050002 15 194 0.0 4.8 0.00 0.00 0.00 83 1014.8
20260906045502 15 197 1.6 4.8 0.00 0.00 0.00 83 1014.8
20260906045002 15 198 1.6 6.4 0.00 0.00 0.00 83 1014.8
20260906044503 15 199 3.2 6.4 0.00 0.00 0.00 82 1014.8
20260906044002 15 200 3.2 8.0 0.00 0.00 0.00 82 1014.8
20260906043524 15 202 3.2 8.0 0.00 0.00 0.00 81 1014.8
20260906043003 15 206 1.6 4.8 0.00 0.00 0.00 80 1014.8
20260906042503 15 210 1.6 6.4 0.00 0.00 0.00 79 1014.8
20260906042002 15 212 1.6 6.4 0.00 0.00 0.00 79 1014.8
20260906041503 15 213 1.6 4.8 0.00 0.00 0.00 78 1014.8
20260906041003 15 214 0.0 4.8 0.00 0.00 0.00 77 1014.8
20260906040502 15 215 0.0 4.8 0.00 0.00 0.00 77 1014.8
20260906040003 15 215 0.0 4.8 0.00 0.00 0.00 77 1014.8
20260906035503 15 216 0.0 4.8 0.00 0.00 0.00 77 1014.8
20260906035003 16 217 1.6 4.8 0.00 0.00 0.00 77 1014.8
20260906034503 16 217 1.6 4.8 0.00 0.00 0.00 76 1014.8
20260906034003 16 222 1.6 4.8 0.00 0.00 0.00 76 1014.8
20260906033503 16 234 0.0 4.8 0.00 0.00 0.00 76 1014.8
20260906033003 16 278 0.0 4.8 0.00 0.00 0.00 76 1014.8
20260906032502 16 278 0.0 4.8 0.00 0.00 0.00 76 1014.8
20260906032024 16 281 1.6 4.8 0.00 0.00 0.00 75 1014.8
20260906031503 16 282 1.6 4.8 0.00 0.00 0.00 75 1014.8
20260906031003 16 285 0.0 4.8 0.00 0.00 0.00 75 1014.8
20260906030503 16 286 0.0 4.8 0.00 0.00 0.00 74 1014.8
20260906030003 16 287 0.0 3.2 0.00 0.00 0.00 74 1014.8
20260906025503 16 287 0.0 3.2 0.00 0.00 0.00 74 1014.8
20260906025003 17 287 0.0 3.2 0.00 0.00 0.00 73 1014.8
20260906024503 17 288 0.0 4.8 0.00 0.00 0.00 73 1014.8
20260906024024 17 288 0.0 4.8 0.00 0.00 0.00 73 1014.8
20260906023524 17 305 0.0 3.2 0.00 0.00 0.00 72 1014.8
20260906023003 17 287 1.6 4.8 0.00 0.00 0.00 71 1014.8
20260906022524 17 282 1.6 4.8 0.00 0.00 0.00 71 1014.8
20260906022003 17 266 1.6 6.4 0.00 0.00 0.00 70 1014.8
20260906021503 17 259 1.6 6.4 0.00 0.00 0.00 69 1014.8
20260906021024 17 269 1.6 6.4 0.00 0.00 0.00 69 1014.8
20260906020503 18 300 1.6 4.8 0.00 0.00 0.00 68 1014.8
20260906020003 18 292 1.6 4.8 0.00 0.00 0.00 68 1014.8
20260906015503 18 294 1.6 4.8 0.00 0.00 0.00 68 1014.8
20260906015003 18 308 1.6 4.8 0.00 0.00 0.00 67 1014.8
20260906014503 18 294 1.6 4.8 0.00 0.00 0.00 66 1014.8
20260906014003 18 276 1.6 11.3 0.00 0.00 0.00 65 1014.8
20260906013502 18 277 3.2 11.3 0.00 0.00 0.00 64 1014.8
20260906013003 19 285 1.6 8.0 0.00 0.00 0.00 63 1014.8
20260906012503 19 301 1.6 8.0 0.00 0.00 0.00 63 1014.8
20260906012003 19 313 1.6 6.4 0.00 0.00 0.00 63 1014.8
20260906011503 20 314 1.6 6.4 0.00 0.00 0.00 63 1014.8
20260906011003 20 317 1.6 8.0 0.00 0.00 0.00 62 1014.8
20260906010503 20 309 1.6 9.7 0.00 0.00 0.00 62 1014.8
20260906010003 20 308 1.6 9.7 0.00 0.00 0.00 63 1014.8
20260906005503 20 313 3.2 8.0 0.00 0.00 0.00 64 1014.8
20260906005003 20 324 3.2 9.7 0.00 0.00 0.00 65 1014.8
20260906004503 20 317 3.2 9.7 0.00 0.00 0.00 65 1014.8
20260906004003 20 321 1.6 9.7 0.00 0.00 0.00 65 1014.8
20260906003524 20 338 3.2 12.9 0.00 0.00 0.00 66 1014.8
20260906003003 20 325 3.2 12.9 0.00 0.00 0.00 65 1014.8
20260906002503 20 312 3.2 8.0 0.00 0.00 0.00 64 1014.8
20260906002003 20 303 3.2 12.9 0.00 0.00 0.00 63 1014.8
20260906001503 20 309 4.8 16.1 0.00 0.00 0.00 61 1014.8
20260906001024 20 324 4.8 17.7 0.00 0.00 0.00 60 1014.8
20260906000524 21 320 4.8 17.7 0.00 0.00 0.00 59 1014.8
20260906000003 21 310 4.8 19.3 0.00 0.00 0.00 56 1014.8
20260905235503 21 325 4.8 24.1 0.00 0.00 0.00 56 1014.8
20260905235003 21 324 4.8 24.1 0.00 0.00 0.00 53 1014.8
20260905234503 21 324 4.8 20.9 0.00 0.00 0.00 52 1014.8
20260905234024 22 325 6.4 20.9 0.00 0.00 0.00 53 1014.8
20260905233503 22 325 6.4 22.5 0.00 0.00 0.00 49 1014.8
20260905233003 22 327 4.8 22.5 0.00 0.00 0.00 50 1014.8
20260905232524 22 329 4.8 17.7 0.00 0.00 0.00 50 1014.8
20260905232024 22 330 4.8 20.9 0.00 0.00 0.00 49 1014.8
20260905231503 22 323 4.8 20.9 0.00 0.00 0.00 49 1014.8
20260905231003 22 332 6.4 19.3 0.00 0.00 0.00 51 1014.8
20260905230503 22 328 4.8 19.3 0.00 0.00 0.00 51 1014.8
20260905230003 22 299 3.2 12.9 0.00 0.00 0.00 50 1014.8
20260905225524 22 274 4.8 14.5 0.00 0.00 0.00 51 1014.8
20260905225024 22 266 4.8 17.7 0.00 0.00 0.00 51 1014.8
20260905224503 22 292 4.8 17.7 0.00 0.00 0.00 50 1014.8
20260905224003 23 322 4.8 12.9 0.00 0.00 0.00 50 1014.8
20260905223503 23 321 4.8 12.9 0.00 0.00 0.00 50 1014.8
20260905223003 23 326 4.8 22.5 0.00 0.00 0.00 48 1014.8
20260905222503 23 328 4.8 22.5 0.00 0.00 0.00 48 1014.8
20260905222003 23 315 4.8 14.5 0.00 0.00 0.00 48 1014.8
20260905221503 23 310 4.8 16.1 0.00 0.00 0.00 46 1014.8
20260905221003 23 311 4.8 16.1 0.00 0.00 0.00 46 1014.8
20260905220503 23 333 3.2 16.1 0.00 0.00 0.00 46 1014.8
20260905220003 23 336 4.8 17.7 0.00 0.00 0.00 47 1014.8
20260905215503 23 322 4.8 17.7 0.00 0.00 0.00 46 1014.8
20260905215024 23 296 4.8 16.1 0.00 0.00 0.00 48 1014.8
20260905214503 23 278 4.8 19.3 0.00 0.00 0.00 46 1014.8
20260905214003 23 302 4.8 12.9 0.00 0.00 0.00 44 1014.4
20260905213524 23 313 4.8 12.9 0.00 0.00 0.00 44 1014.4
20260905213003 23 278 3.2 14.5 0.00 0.00 0.00 46 1014.4
20260905212503 23 275 4.8 14.5 0.00 0.00 0.00 46 1014.4
20260905212024 23 271 4.8 14.5 0.00 0.00 0.00 45 1014.4
20260905211524 24 267 4.8 12.9 0.00 0.00 0.00 43 1014.4
20260905211003 24 276 3.2 12.9 0.00 0.00 0.00 41 1014.4
20260905210503 24 274 3.2 12.9 0.00 0.00 0.00 41 1014.4
20260905210003 24 287 3.2 12.9 0.00 0.00 0.00 41 1014.4